Regional Weather Roundup
Issued by NWS

Home | Current Version | Previous Version | Graphics & Text | Print | Product List | Glossary On
Versions: 1 2 3 4 5 6 7 8 9 10 11 12 13 14 15 16 17 18 19 20 21 22 23 24 25 26 27 28 29 30 31 32 33 34 35 36 37 38 39 40 41 42 43 44 45 46 47 48 49 50
000
ASUS43 KOAX 200710
RWRNE

WEATHER ROUNDUP FOR NEBRASKA
NATIONAL WEATHER SERVICE OMAHA NE
200 AM CDT FRI APR 20 2018

NOTES: SATELLITE DATA IS BEING USED TO AUGMENT CLOUD COVER ABOVE
       12000 FEET.
       "FAIR" INDICATES FEW OR NO CLOUDS BELOW 12,000 FEET WITH NO
       SIGNIFICANT WEATHER AND/OR OBSTRUCTIONS TO VISIBILITY.


NEZ001>004-019>022-054>056-200800-
NEBRASKA PANHANDLE

CITY           SKY/WX    TMP DP  RH WIND       PRES   REMARKS
SCOTTSBLUFF    PTCLDY    44  27  51 SE28G39   30.09S
ALLIANCE       MOCLDY    41  27  57 SE21      30.14S
CHADRON        MOCLDY    46  26  45 S13G23    30.13S
GORDON         FAIR      42  28  55 SE14G22   30.19F
KIMBALL        MOCLDY    41  25  52 SE28G37   30.07F
SIDNEY         MOCLDY    40  25  55 SE23G36   30.11S WCI  30
$$

NEZ057>060-069>072-079>082-200800-
SOUTHWEST NEBRASKA

CITY           SKY/WX    TMP DP  RH WIND       PRES   REMARKS
NORTH PLATTE   MOCLDY    37  28  70 SE10      30.26S WCI  30
IMPERIAL       CLOUDY    41  27  57 E18       30.20S
LEXINGTON      MOCLDY    42  28  58 SE10      30.30F
MCCOOK         MOCLDY    40  28  62 E9        30.25F WCI  34
OGALLALA       CLOUDY    44  28  53 SE17      30.21S
$$

NEZ005>010-023>029-035>040-094-200800-
NORTH CENTRAL NEBRASKA

CITY           SKY/WX    TMP DP  RH WIND       PRES   REMARKS
VALENTINE      MOCLDY    37  29  72 E6        30.28F WCI  32
AINSWORTH      CLOUDY    37  28  72 SE8       30.29F WCI  30
BROKEN BOW     CLOUDY    38  27  64 SE6       30.30S WCI  33
O`NEILL        CLOUDY    39  32  76 SE9       30.35F WCI  33
ORD            CLOUDY    40  27  59 SE10      30.32F WCI  33
THEDFORD       CLOUDY    42  29  61 SE8       30.27F
$$

NEZ041-046>049-061>064-073>077-083>087-200800-
SOUTH CENTRAL NEBRASKA

CITY           SKY/WX    TMP DP  RH WIND       PRES   REMARKS
GRAND ISLAND   PTCLDY    40  28  62 SE7       30.36S
AURORA         CLOUDY    33  26  73 SE6       30.36F WCI  28
HASTINGS       PTCLDY    42  27  55 SE10      30.34F
HEBRON         CLOUDY    38  28  68 CALM      30.36F
HOLDREGE       CLOUDY    38  29  70 SE10      30.30F WCI  30
KEARNEY        CLOUDY    39  27  62 SE9       30.33F WCI  33
YORK             N/A     37  28  70 CALM      30.37F
$$

NEZ011>018-030>034-042>045-200800-
NORTHEAST NEBRASKA

CITY           SKY/WX    TMP DP  RH WIND       PRES   REMARKS
NORFOLK        PTCLDY    36  31  82 E9        30.39S WCI  29
ALBION         CLOUDY    37  30  74 E3        30.37S
BLAIR          CLOUDY    38  28  66 E8        30.42S WCI  32
COLUMBUS       MOCLDY    34  28  79 E6        30.40  WCI  29
FREMONT        CLOUDY    41  30  64 E7        30.42F
WAYNE          CLOUDY    32  31  97 CALM      30.42S
$$

NEZ050>053-065>068-078-088>093-200800-
SOUTHEAST NEBRASKA

CITY           SKY/WX    TMP DP  RH WIND       PRES   REMARKS
LINCOLN        CLOUDY    34  26  72 CALM      30.40F
OMAHA EPPLEY   CLOUDY    40  26  57 SW3       30.44R
BEATRICE       CLOUDY    41  29  61 SE6       30.39S
FALLS CITY     CLOUDY    39  26  59 SE3       30.41F
NEBRASKA CITY  CLOUDY    41  28  60 E3        30.41F
PLATTSMOUTH    CLOUDY    40  28  60 E9        30.42F HAZE    WCI  35
$$

NEZ044-045-051>053-067-200800-
OMAHA AREA

CITY           SKY/WX    TMP DP  RH WIND       PRES   REMARKS
OMAHA EPPLEY   CLOUDY    40  26  57 SW3       30.44R
BLAIR          CLOUDY    38  28  66 E8        30.42S WCI  32
FREMONT        CLOUDY    41  30  64 E7        30.42F
MILLARD        CLOUDY    43  28  56 CALM      30.43S
OFFUTT AFB     CLOUDY    35  26  68 E7        30.42S WCI  29
PLATTSMOUTH    CLOUDY    40  28  60 E9        30.42F HAZE    WCI  35
WAHOO          FAIR      37  25  60 E3        30.41S
$$




USA.gov is the U.S. government's official web portal to all federal, state and local government web resources and services.